Weather History for Cheyenne, WY

Change the Weather History Date:

Thursday, January 24, 2013

  Actual Average Record
Temperature  
Mean Temperature 45 °F 29 °F  
Max Temperature 57 °F 39 °F 61 °F (1968)
Min Temperature 33 °F 18 °F -17 °F (1894)
Degree Days  
Heating Degree Days 20 36  
Month to date heating degree days 913 865  
Since 1 July heating degree days 3615 3768  
Cooling Degree Days 0 0  
Month to date cooling degree days 0 0  
Year to date cooling degree days 0 0  
Moisture  
Dew Point 13 °F    
Average Humidity 34    
Maximum Humidity 54    
Minimum Humidity 13    
Precipitation  
Precipitation 0.00 in 0.01 in 1.00 in (1921)
Month to date precipitation 0.12 0.25  
Year to date precipitation 0.12 0.25  
Snow  
Snow 0.00 in 0.20 in 14.00 in (1921)
Month to date snowfall 2.9 4.5  
Since 1 July snowfall 28.3 27.2  
Snow Depth 0.00 in    
Sea Level Pressure  
Sea Level Pressure 29.99 in    
Wind  
Wind Speed 17 mph (West)    
Max Wind Speed 38 mph    
Max Gust Speed 48 mph    
Visibility 10 miles    
Events      
T = Trace of Precipitation, MM = Missing Value Source: NWS Daily Summary

Daily Weather History Graph

Daily Weather History Graph

Search for Another Location

Airport:

Trip Planner

Search our weather history database for the weather conditions in past years. The results will help you decide how hot, cold, wet, or windy it might be!

Date:

Astronomy

Jan. 24, 2013 Rise Set
Actual Time 7:16 AM MST 5:06 PM MST
Civil Twilight 6:47 AM MST 5:36 PM MST
Nautical Twilight 6:13 AM MST 6:09 PM MST
Astronomical Twilight 5:41 AM MST 6:42 PM MST
Moon 3:10 PM MST (1/24) 5:16 AM MST (1/24)
Length of Visible Light 10h 49m
Length of Day
9h 49m
Waxing Gibbous, 95% of the Moon is Illuminated
Jan 24
Waxing Gibbous
Jan 26
Full
Feb 3
Last Quarter
Feb 10
New
Feb 17
First Quarter

Hourly Weather History & Observations

Time (MST) Temp. Windchill Dew Point Humidity Pressure Visibility Wind Dir Wind Speed Gust Speed Precip Events Conditions
12:53 AM 36.0 °F 33.3 °F 7.0 °F 30% 30.01 in 10.0 mi SSW 3.5 mph - N/A   Clear
1:36 AM 48.2 °F - -2.2 °F 12% 30.08 in 10.0 mi West 21.9 mph 28.8 mph N/A   Clear
1:53 AM 46.0 °F 39.6 °F -0.9 °F 14% 29.94 in 10.0 mi West 15.0 mph - N/A   Clear
2:53 AM 45.0 °F 36.6 °F -0.0 °F 15% 29.95 in 10.0 mi West 21.9 mph - N/A   Clear
3:53 AM 45.0 °F 35.8 °F -0.9 °F 15% 29.96 in 10.0 mi West 26.5 mph - N/A   Clear
4:53 AM 42.1 °F 33.9 °F -0.0 °F 17% 29.97 in 10.0 mi West 17.3 mph - N/A   Clear
5:53 AM 37.0 °F 28.5 °F 3.0 °F 24% 30.04 in 10.0 mi West 13.8 mph - N/A   Clear
6:53 AM 37.9 °F 32.1 °F 3.0 °F 23% 30.07 in 10.0 mi WNW 8.1 mph - N/A   Clear
7:53 AM 37.0 °F - 3.0 °F 24% 30.07 in 10.0 mi Calm Calm - N/A   Clear
8:53 AM 48.0 °F - -0.0 °F 14% 30.00 in 10.0 mi West 16.1 mph - N/A   Clear
9:53 AM 52.0 °F - 6.1 °F 16% 29.98 in 10.0 mi WNW 19.6 mph 24.2 mph N/A   Clear
10:53 AM 54.0 °F - 8.1 °F 16% 29.97 in 10.0 mi WNW 23.0 mph 33.4 mph N/A   Clear
11:53 AM 55.0 °F - 12.0 °F 18% 29.93 in 10.0 mi West 24.2 mph 32.2 mph N/A   Mostly Cloudy
12:53 PM 55.9 °F - 17.1 °F 22% 29.92 in 10.0 mi West 34.5 mph 48.3 mph N/A   Partly Cloudy
1:53 PM 55.9 °F - 17.1 °F 22% 29.86 in 10.0 mi West 26.5 mph 35.7 mph N/A   Partly Cloudy
2:53 PM 53.1 °F - 18.0 °F 25% 29.89 in 10.0 mi WSW 34.5 mph 44.9 mph N/A   Clear
3:53 PM 52.0 °F - 21.9 °F 31% 29.92 in 10.0 mi West 26.5 mph 36.8 mph N/A   Mostly Cloudy
4:53 PM 48.0 °F - 24.1 °F 39% 29.98 in 10.0 mi West 13.8 mph 27.6 mph N/A   Partly Cloudy
5:53 PM 46.0 °F - 24.1 °F 42% 30.03 in 10.0 mi Calm Calm - N/A   Mostly Cloudy
6:53 PM 44.1 °F 38.1 °F 25.0 °F 47% 30.05 in 10.0 mi NW 11.5 mph 24.2 mph N/A   Clear
7:53 PM 45.0 °F 35.1 °F 26.1 °F 48% 30.04 in 10.0 mi West 31.1 mph 41.4 mph N/A   Clear
8:53 PM 42.1 °F 36.6 °F 26.1 °F 53% 30.05 in 10.0 mi WNW 9.2 mph - N/A   Clear
9:53 PM 42.1 °F 33.1 °F 25.0 °F 51% 30.00 in 10.0 mi WNW 20.7 mph 28.8 mph N/A   Clear
10:53 PM 39.9 °F 35.8 °F 25.0 °F 55% 30.05 in 10.0 mi NW 5.8 mph - N/A   Clear
11:53 PM 37.0 °F 28.5 °F 25.0 °F 62% 30.05 in 10.0 mi West 13.8 mph - N/A   Clear